Regional Weather Roundup
Issued by NWS Upton, NY

Current Version | Previous Version | Graphics & Text | Print | Product List | Glossary Off
Versions: 1 2 3 4 5 6 7 8 9 10 11 12 13 14 15 16 17 18 19 20 21 22 23 24 25 26 27 28 29 30 31 32 33 34 35 36 37 38 39 40 41 42 43 44 45 46 47 48 49 50

000
ASUS41 KOKX 301105
RWROKX

REGIONAL WEATHER ROUNDUP
NATIONAL WEATHER SERVICE NEW YORK NY
700 AM EDT TUE SEP 30 2014

NOTE: "FAIR" INDICATES FEW OR NO CLOUDS BELOW 12,000 FEET WITH NO
SIGNIFICANT WEATHER AND/OR OBSTRUCTIONS TO VISIBILITY.

NYZ071-072-176-178-NJZ106-104-301200-
NEW YORK CITY METRO AREA


CITY           SKY/WX    TMP DP  RH WIND       PRES   REMARKS
CENTRAL PARK   CLOUDY    68  61  78 SE3       29.98R
LAGUARDIA APRT CLOUDY    68  64  88 CALM      29.94R FOG
KENNEDY INTL   CLOUDY    67  61  81 NW5       29.95R
NEWARK/LIBERTY MOCLDY    67  61  81 S3        29.95R
BRNX BOT. GARD   N/A     66  63  88 CALM      29.97R
TETERBORO      CLOUDY    66  60  81 SE3       29.94R
$$

NYZ177-179-078>081-301200-
LONG ISLAND NEW YORK

CITY           SKY/WX    TMP DP  RH WIND       PRES   REMARKS
FARMINGDALE    CLOUDY    67  63  87 CALM      29.95R
ISLIP          CLOUDY    65  63  93 NE7       29.93R FOG
SHIRLEY        LGT RAIN  64  63  96 VRB6      29.96R FOG
WESTHAMPTON    CLOUDY    64  62  93 E8        29.97R
MONTAUK POINT    N/A     62  59  90 NE8       30.00R
$$

NYZ052-065-067-301200-
HUDSON VALLEY

CITY           SKY/WX    TMP DP  RH WIND       PRES   REMARKS
WHITE PLAINS   CLOUDY    65  62  90 E6        29.96R FOG
NEWBURGH       MOCLDY    59  59 100 SE7       29.96R FOG
MONTGOMERY     FOG       53  52  96 CALM      29.95R VSB 1/2
POUGHKEEPSIE   PTCLDY    59  57  93 CALM      29.94R
ALBANY         CLOUDY    57  55  93 CALM      29.97R
$$

NJZ001-105-106-008-010-013-015-019>022-104-301200-
NEW JERSEY

CITY           SKY/WX    TMP DP  RH WIND       PRES   REMARKS
NEWARK/LIBERTY MOCLDY    67  61  81 S3        29.95R
TETERBORO      CLOUDY    66  60  81 SE3       29.94R
CALDWELL       CLOUDY    62  58  86 CALM      29.95R
MORRISTOWN     CLOUDY    61  59  94 CALM      29.95R
SOMERVILLE     PTCLDY    55  53  93 CALM      29.94R FOG
LINDEN         PTSUNNY   69  64  85 CALM      29.97R
SUSSEX         CLOUDY    61  58  90 CALM      29.95R
ANDOVER          N/A     54  54 100 CALM      29.95R
TRENTON        MOCLDY    61  58  90 CALM      29.94R
MILLVILLE      CLOUDY    63  61  93 CALM      29.94R
ATLANTIC CITY  CLOUDY    60  58  92 CALM      29.95R
WRIGHTSTOWN    CLOUDY    59  58  97 CALM      29.92S
TOMS RIVER     CLOUDY    59  55  88 CALM      29.94R
BELMAR         CLOUDY    63  54  72 CALM      29.95R
$$

PAZ047>061-062-071-301200-
EASTERN PENNSYLVANIA

CITY           SKY/WX    TMP DP  RH WIND       PRES   REMARKS
PHILADELPHIA   CLOUDY    65  61  87 SE3       29.93S
ALLENTOWN      FOG       57  56  96 CALM      29.94R VSB 1/4
SCRANTON       CLEAR     58  54  86 E3        29.93R FOG
$$

CTZ002-004>006-009-010-012-RIZ004-006-007-MAZ004-011-015-301200-
SOUTHERN NEW ENGLAND
 IN CT

CITY           SKY/WX    TMP DP  RH WIND       PRES   REMARKS
BRADLEY INTL   CLOUDY    60  54  80 N7        29.99S
HARTFORD       CLOUDY    60  55  83 VRB6      29.99R
DANBURY        CLOUDY    62  59  90 NE7       29.98R FOG
WTRBRY/OXFORD  CLOUDY    57  54  88 E7        30.00R FOG
BRIDGEPORT     CLOUDY    64  61  90 NE9       29.97R
MERIDEN        CLOUDY    60  56  86 NE5       29.99R
NEW HAVEN      CLOUDY    64  59  83 NE5       29.98R FOG
CHESTER        CLOUDY    59  57  94 NE6       29.99R
GROTON         LGT RAIN  59  57  93 NE9       29.98R
WILLIMANTIC    CLOUDY    58  54  86 NE8       30.00R

 IN RI

CITY           SKY/WX    TMP DP  RH WIND       PRES   REMARKS
PROVIDENCE     LGT RAIN  57  55  93 NE12      30.02R
BLOCK ISLAND   CLOUDY    61  55  82 NE8       29.99R
WESTERLY       LGT RAIN  59  56  89 NE7       30.00R

 IN MA

CITY           SKY/WX    TMP DP  RH WIND       PRES   REMARKS
BOSTON         CLOUDY    56  54  93 NE10      30.03R
WORCESTER      CLOUDY    53  53 100 NE5       30.03R VSB 1
WESTFIELD      LGT RAIN  58  56  93 NE5       30.02R FOG
PROVINCETOWN   CLOUDY    61  57  88 N14       30.00R VSB 3/4
NANTUCKET      CLOUDY    62  60  93 N9        29.97S
$$

ANZ330-335-338-340-345-350-353-355-301200-
COASTAL MARINE OBSERVATIONS


STATION/POSITION TIME  SKY/WX   TEMP    WIND        PRES    VSBY  WAVE
                                AIR SEA DIR/SP/G                  HT/PER
                 (UTC)          (F)     (DEG/KT/KT) (MB)    (MI)  (FT/S)
NY HARB ENTRANCE 1100            69 68  290/  6/  8 1014.2          1/ 8
4S FIRE IS       1100               69                N/A           2/ 8
20S FIRE ISLAND  1100            68 68  360/  6/  8 1013.6          2/ 8
23SW MTP         1100                                 N/A           2/ 4
HUDSON CANYON    1100            68 69   60/  8/  8 1013.7          2/ 8
EXECUTION ROCKS  1100            68 69   70/ 14/ 19   N/A
WESTERN LI SOUND 1100            67      70/ 17/ 19   N/A           2/ 3
CENTRAL LI SOUND 1000            63 68   80/ 14/ 16   N/A           1/ 4
EASTERN LI SOUND 1000            61 67   50/ 12/ 16   N/A
ROBBINS REEF     1000            68     200/  1/  1 1012.6
$$


>>>>>>>>>>>>>>>>>>>>>>>>>>>> KEY <<<<<<<<<<<<<<<<<<<<<<<<<<<
>                                                          <
>     SKY/WX - SKY CONDITION/PRESENT WEATHER               <
>     TMP    - TEMPERATURE IN FAHRENHEIT                   <
>     DP     - DEWPOINT IN FAHRENHEIT                      <
>     RH     - RELATIVE HUMIDITY IN PERCENT                <
>     WIND   - DIRECTION AND SPEED IN MPH                  <
>     PRES   - MEAN SEA LEVEL PRESSURE IN INCHES OF HG     <
>     WCI    - WIND CHILL INDEX                            <
>     VSB    - VISIBILITY IN MILES                         <
>     HX     - HEAT INDEX                                  <
>     TC     - TEMPERATURE IN CELSIUS                      <
>     VRB    - VARIABLE WIND DIRECTION                     <
>                                                          <
>>>>>>>>>>>>>>>>>>>>>>>>>>>> KEY <<<<<<<<<<<<<<<<<<<<<<<<<<<




USA.gov is the U.S. government's official web portal to all federal, state and local government web resources and services.